TimePDT,TemperatureF,Dew PointF,Humidity,Sea Level PressureIn,VisibilityMPH,Wind Direction,Wind SpeedMPH,Gust SpeedMPH,PrecipitationIn,Events,Conditions,WindDirDegrees,DateUTC
12:53 AM,41.0,39.0,93,30.13,10.0,ESE,3.5,-,N/A,,Partly Cloudy,110,2013-09-06 07:53:00
1:53 AM,41.0,39.0,93,30.13,10.0,Calm,Calm,-,N/A,,Clear,0,2013-09-06 08:53:00
2:53 AM,39.0,37.0,93,30.14,10.0,Calm,Calm,-,N/A,,Clear,0,2013-09-06 09:53:00
3:53 AM,39.0,36.0,89,30.14,10.0,Calm,Calm,-,N/A,,Clear,0,2013-09-06 10:53:00
4:53 AM,37.9,35.1,89,30.16,10.0,Calm,Calm,-,N/A,,Clear,0,2013-09-06 11:53:00
5:27 AM,37.4,37.4,100,30.21,2.0,Calm,Calm,-,N/A,,Partly Cloudy,0,2013-09-06 12:27:00
5:29 AM,37.4,35.6,93,30.21,1.0,Calm,Calm,-,N/A,,Mist,0,2013-09-06 12:29:00
5:36 AM,37.4,37.4,100,30.21,0.8,NNE,3.5,-,N/A,,Mist,30,2013-09-06 12:36:00
5:38 AM,37.4,37.4,100,30.21,1.2,NNE,3.5,-,N/A,,Partly Cloudy,30,2013-09-06 12:38:00
5:51 AM,35.6,35.6,100,30.20,3.0,Calm,Calm,-,N/A,,Partly Cloudy,0,2013-09-06 12:51:00
5:53 AM,35.1,35.1,100,30.17,4.0,Calm,Calm,-,N/A,,Partly Cloudy,0,2013-09-06 12:53:00
6:01 AM,35.6,35.6,100,30.21,1.8,Calm,Calm,-,N/A,,Partly Cloudy,0,2013-09-06 13:01:00
6:11 AM,35.6,33.8,93,30.21,4.0,Calm,Calm,-,N/A,,Partly Cloudy,0,2013-09-06 13:11:00
6:53 AM,37.0,36.0,96,30.19,10.0,Calm,Calm,-,N/A,,Partly Cloudy,0,2013-09-06 13:53:00
7:53 AM,44.1,41.0,89,30.20,10.0,Calm,Calm,-,N/A,,Clear,0,2013-09-06 14:53:00
8:53 AM,50.0,43.0,77,30.20,10.0,Calm,Calm,-,N/A,,Clear,0,2013-09-06 15:53:00
9:53 AM,55.0,44.1,67,30.18,10.0,Calm,Calm,-,0.00,,Clear,0,2013-09-06 16:53:00
10:53 AM,59.0,44.1,58,30.19,10.0,Variable,3.5,-,N/A,,Scattered Clouds,0,2013-09-06 17:53:00
11:53 AM,64.0,43.0,46,30.16,10.0,ENE,3.5,-,N/A,,Scattered Clouds,70,2013-09-06 18:53:00
12:53 PM,64.9,44.1,47,30.15,10.0,Calm,Calm,-,N/A,,Clear,0,2013-09-06 19:53:00
1:53 PM,66.9,43.0,42,30.13,10.0,WNW,4.6,-,N/A,,Clear,300,2013-09-06 20:53:00
2:53 PM,70.0,43.0,38,30.10,10.0,SSE,3.5,-,N/A,,Clear,150,2013-09-06 21:53:00
3:53 PM,73.0,43.0,34,30.07,10.0,SW,4.6,-,N/A,,Clear,220,2013-09-06 22:53:00
4:53 PM,73.0,39.0,29,30.06,10.0,WNW,5.8,-,N/A,,Clear,290,2013-09-06 23:53:00
5:53 PM,73.0,37.9,28,30.06,10.0,NNW,3.5,-,N/A,,Clear,330,2013-09-07 00:53:00
6:53 PM,71.1,41.0,34,30.04,10.0,NW,9.2,-,N/A,,Clear,320,2013-09-07 01:53:00
7:53 PM,64.9,44.1,47,30.04,10.0,NNW,5.8,-,N/A,,Clear,330,2013-09-07 02:53:00
8:53 PM,63.0,46.9,56,30.05,10.0,WNW,6.9,-,N/A,,Clear,300,2013-09-07 03:53:00
9:53 PM,63.0,48.0,58,30.04,10.0,NNW,10.4,-,N/A,,Clear,330,2013-09-07 04:53:00
10:53 PM,59.0,48.0,67,30.05,10.0,NW,3.5,-,N/A,,Clear,310,2013-09-07 05:53:00
11:53 PM,53.1,46.9,80,30.05,10.0,Calm,Calm,-,N/A,,Clear,0,2013-09-07 06:53:00